Tracking 29487 objects as of 11-Sep-2024
HD Live streaming from Space Station
objects crossing your sky now

STARLINK-6161

Track STARLINK-6161 now!
10-day predictions
STARLINK-6161 is classified as:


NORAD ID: 56380
Int'l Code: 2023-061G
Perigee: 565.6 km
Apogee: 566.8 km
Inclination: 43.0 °
Period: 95.8 minutes
Semi major axis: 6937 km
RCS: Unknown
Launch date: May 4, 2023
Source: United States (US)
Launch site: AIR FORCE EASTERN TEST RANGE (AFETR)
Your satellite tracking list
Your tracking list is empty




NASA's NSSDC Master Catalog

Two Line Element Set (TLE):
1 56380U 23061G   24254.36483571  .00001671  00000-0  13874-3 0  9999
2 56380  43.0030 280.6119 0000870 269.1300  90.9443 15.02541734 74728
Source of the keplerian elements: AFSPC